Theta_e
293 289 285 289 293 293 291 290 290 292 295 293 290 289 290 291 290 291 294 296 296 297 297 297 297 298 299 300 301 302 303 303 303 302 301 302 301 301 302 303 303 304 305 307
289 285 291 294 294 291 291 289 289 293 293 292 289 287 289 290 289 291 293 294 296 295 296 295 293 294 294 294 296 297 299 301 302 302 302 302 301 303 302 303 303 304 306 309
287 288 293 292 290 289 287 288 289 290 291 291 289 287 287 288 290 292 292 293 293 293 293 293 292 291 291 291 292 294 296 297 299 302 303 303 303 303 303 305 306 306 310 312
288 290 291 289 288 290 285 291 293 292 288 283 289 281 284 287 286 289 290 290 290 291 291 291 290 290 289 289 291 292 293 294 297 298 302 305 304 304 306 307 308 309 310 310
287 287 287 286 288 292 288 291 291 291 289 284 283 281 285 286 284 285 288 289 289 289 289 288 288 289 289 288 289 290 291 291 294 296 298 300 300 300 301 302 303 304 305 305
288 290 290 289 293 292 293 291 290 289 286 279 282 282 283 282 285 285 286 287 287 288 287 287 288 288 287 287 287 288 288 289 291 292 293 294 294 295 294 296 296 298 299 299
285 287 289 290 288 291 292 288 282 277 275 276 283 283 285 286 287 287 285 284 284 286 285 285 285 285 285 284 286 287 287 287 288 288 290 291 292 292 291 292 293 293 294 294
281 280 286 289 289 287 288 288 280 275 275 278 283 280 284 285 286 287 285 284 283 283 283 283 283 283 283 283 284 284 285 284 285 286 285 286 287 287 288 288 289 289 290 292
281 281 286 288 289 292 286 286 289 283 277 277 280 281 282 283 282 283 282 282 281 282 282 282 282 282 281 281 280 281 281 282 282 282 283 283 283 283 283 283 284 285 286 287
286 281 284 287 289 288 288 292 284 284 277 275 278 279 282 280 280 281 281 280 281 281 281 281 281 280 280 279 279 280 280 280 281 281 281 281 282 282 282 282 282 283 283 285
286 283 281 285 284 283 284 283 283 284 281 277 275 278 281 282 283 281 281 281 281 281 280 280 280 279 278 278 278 278 279 279 279 279 280 279 280 280 281 280 280 281 282 282
286 283 278 281 285 287 285 285 285 280 278 278 279 278 281 283 284 283 281 281 281 281 279 278 278 277 276 276 277 277 278 278 278 278 278 278 278 279 278 278 279 280 280 281
288 278 272 278 281 282 282 284 285 283 282 279 276 278 282 282 281 282 280 280 280 278 277 276 276 275 275 276 276 276 276 276 277 277 277 277 277 277 277 277 278 278 279 279
292 282 281 278 279 283 282 283 285 286 279 280 278 278 278 280 279 279 279 280 279 277 276 275 274 274 275 276 275 275 276 276 276 276 275 275 275 276 276 276 276 277 277 277
289 279 280 282 283 283 283 285 285 283 285 281 283 280 282 281 281 280 280 279 278 276 275 274 274 274 274 274 275 275 275 276 275 274 274 274 275 276 275 275 275 276 276 276
289 280 282 282 285 282 280 283 285 285 283 281 280 280 282 284 282 280 280 279 278 276 275 275 275 275 275 275 275 275 275 274 274 273 273 274 274 274 274 274 274 274 274 275
285 284 280 278 284 281 279 283 283 284 282 285 281 285 282 280 281 280 279 279 278 277 276 276 275 276 276 275 276 274 273 274 273 273 273 273 273 273 273 273 273 273 273 274
284 284 281 279 282 276 282 281 284 285 283 282 282 282 283 282 282 282 282 280 279 278 276 276 276 275 275 275 274 274 274 273 272 271 271 272 272 272 272 272 272 272 272 272
289 285 279 278 274 279 280 279 282 283 284 285 284 282 281 281 280 276 282 282 280 279 277 276 276 275 274 273 273 273 272 272 271 270 270 270 271 271 271 271 270 271 271 272
287 289 284 277 276 274 279 280 283 285 281 285 284 281 280 282 278 279 282 282 279 278 276 275 275 275 274 273 273 272 270 269 268 269 269 270 271 270 269 270 270 271 271 272
280 283 280 277 276 276 280 282 283 280 281 284 286 283 282 282 282 283 282 279 278 276 275 275 274 274 274 274 272 271 269 268 269 270 269 269 269 270 269 269 270 270 270 270
278 277 277 275 275 275 281 281 281 283 282 283 283 283 283 280 280 280 279 277 276 275 275 274 273 273 273 273 272 270 268 269 268 268 268 267 268 269 269 268 269 269 269 269
278 280 279 280 280 275 281 280 281 282 282 281 282 283 281 279 278 278 276 276 275 274 274 274 273 272 272 272 271 269 268 267 267 266 265 265 266 268 268 268 267 267 267 267
274 272 276 278 276 275 276 278 279 281 283 283 283 281 281 278 278 277 276 276 275 275 273 273 272 271 270 270 271 269 267 266 263 263 264 265 265 265 265 267 267 267 266 266
274 275 273 274 275 276 277 278 281 281 282 281 281 280 279 278 277 277 276 275 275 274 273 272 271 270 269 268 267 266 265 263 263 263 264 265 264 263 264 265 265 266 267 268
273 275 276 277 279 281 281 282 281 280 280 280 279 277 278 279 277 277 275 275 274 273 272 271 270 269 268 266 265 263 261 262 262 263 264 263 263 262 263 263 263 267 269 270
Wind_Speed
2 4 5 7 6 5 6 1 9 5 3 6 3 3 3 4 5 6 7 9 10 12 9 12 12 12 13 13 12 12 11 9 5 4 2 3 3 3 3 4 6 6 6 6
4 7 8 5 8 4 5 9 6 4 5 4 5 2 2 4 3 3 6 7 7 9 11 11 12 13 13 11 12 13 11 11 8 3 2 2 1 2 1 3 5 6 6 7
8 5 8 6 5 5 4 6 5 5 2 3 7 4 6 1 4 5 4 5 8 9 8 10 11 12 10 12 12 10 10 9 9 8 3 3 3 3 4 5 5 6 8 10
4 1 10 6 5 6 4 9 8 10 1 4 2 5 4 6 6 4 4 5 6 5 8 8 9 11 10 10 9 10 10 10 9 11 7 9 5 5 5 5 6 7 11 12
7 8 6 5 7 7 6 4 8 10 11 2 2 2 2 5 6 7 6 6 5 7 6 8 8 9 10 10 9 9 9 11 12 11 11 8 9 7 6 8 10 11 10 13
3 1 5 8 4 6 7 5 8 5 4 3 7 6 5 8 7 8 5 6 5 7 6 7 8 9 9 8 8 9 9 11 11 11 13 12 12 10 9 10 9 8 7 9
2 1 2 3 7 3 5 5 2 2 1 5 1 4 7 5 4 9 12 8 5 6 7 6 7 8 8 8 9 8 9 11 10 11 12 12 11 11 11 10 8 10 8 9
7 4 6 4 7 9 5 7 6 6 4 4 2 7 5 3 6 10 10 9 8 7 6 6 7 6 6 7 8 8 9 10 11 11 11 10 12 8 8 9 7 7 7 8
7 7 1 1 4 10 5 5 4 3 2 2 5 2 1 5 6 9 11 9 8 7 5 6 6 6 6 6 7 7 8 9 10 10 9 10 10 11 9 10 9 7 8 9
6 4 2 2 1 3 7 9 4 1 3 4 4 5 6 12 14 12 11 10 8 8 7 5 5 5 4 5 5 7 8 9 9 9 9 9 9 10 9 9 11 11 10 11
5 4 2 4 6 9 4 5 4 6 5 5 2 7 1 4 16 17 13 11 11 9 7 6 6 5 5 5 6 6 7 9 9 8 8 9 9 10 9 10 10 10 10 11
4 6 4 6 4 2 2 7 8 6 5 4 2 7 4 6 14 14 13 12 10 9 7 6 6 5 5 5 5 6 7 8 8 7 8 9 9 10 11 11 11 10 11 11
8 2 4 5 5 2 5 5 6 4 3 8 6 7 4 7 9 11 15 12 10 9 8 6 6 5 5 5 5 6 6 7 7 7 8 9 10 10 10 10 10 10 10 10
5 4 7 11 3 7 8 7 6 10 6 4 6 4 5 7 11 12 12 12 11 10 9 7 6 5 5 5 4 5 6 6 6 7 8 8 9 8 8 8 9 9 9 10
4 7 3 2 2 2 3 14 15 16 16 13 12 8 8 20 17 17 14 14 14 12 11 9 9 7 5 5 5 5 5 5 5 6 7 7 7 7 7 9 8 8 9 9
3 3 3 4 3 1 4 8 15 20 6 8 4 7 1 11 14 15 17 17 16 15 14 13 12 11 9 8 6 7 5 5 5 6 7 7 6 6 8 8 8 8 9 9
8 8 4 6 4 1 8 15 11 11 6 13 15 10 9 10 16 20 21 20 19 17 16 15 14 11 9 8 8 6 5 5 5 7 7 7 6 7 7 6 7 8 7 6
8 8 3 4 4 9 6 2 3 13 6 7 2 7 17 15 11 12 16 20 18 17 17 15 12 10 9 7 7 6 5 5 6 6 6 5 5 5 5 5 6 6 5 6
6 6 4 7 5 7 4 6 9 10 12 13 9 10 6 12 8 1 13 17 19 18 16 13 11 11 9 9 7 7 6 5 5 5 5 4 4 5 5 6 5 5 5 6
8 10 9 4 7 14 2 5 4 4 12 12 15 17 20 16 8 7 19 19 16 15 15 15 13 11 10 9 8 8 6 5 5 4 4 3 3 4 4 5 6 6 5 8
6 7 16 6 5 10 5 6 4 8 8 6 16 21 24 13 3 9 20 16 17 17 16 15 14 12 11 10 8 7 6 5 4 5 4 4 3 4 5 5 4 4 5 5
8 9 5 3 3 10 7 5 11 5 1 5 8 14 17 6 10 19 20 19 19 18 17 15 13 11 10 9 9 8 6 5 5 4 4 4 4 3 3 3 3 3 4 3
4 5 10 11 9 2 7 1 0 2 4 5 9 11 11 13 11 17 18 18 16 19 16 13 13 12 8 9 7 8 7 6 5 4 4 3 3 3 2 1 1 1 2 2
4 3 3 4 2 4 4 3 2 3 3 5 7 12 13 12 17 16 16 16 16 16 15 12 13 12 10 7 7 5 8 6 6 5 4 3 3 2 1 1 1 0 0 1
3 6 5 5 3 2 7 8 5 5 5 7 8 7 10 17 15 16 16 15 15 14 13 13 13 11 11 8 7 7 7 7 6 4 4 3 3 3 1 0 1 2 2 3
7 8 7 8 9 6 5 12 10 9 8 11 13 9 9 14 17 14 14 13 14 14 13 11 11 10 10 9 7 6 6 7 7 6 5 4 4 2 1 1 2 3 5 5
Wind_Direction
146 106 180 186 177 159 163 123 147 267 281 106 96 123 53 71 54 41 50 67 64 56 39 36 28 29 29 27 29 27 27 12 15 21 19 23 16 351 16 15 16 14 3 7
82 206 207 149 141 156 192 206 195 327 97 98 156 265 52 57 74 70 52 53 64 58 45 40 28 31 26 22 18 23 19 14 16 14 4 42 11 357 359 357 24 17 4 360
166 231 150 150 167 170 150 184 185 178 128 72 132 222 198 106 116 122 99 84 63 61 54 43 38 33 22 18 14 14 14 11 16 5 8 21 24 8 10 16 21 12 21 19
171 110 157 162 188 156 187 188 210 186 68 260 173 263 219 168 167 168 128 89 82 85 62 53 45 41 29 11 12 12 18 18 18 17 29 37 44 35 24 19 24 30 28 25
222 157 143 160 191 161 226 160 161 163 205 322 208 36 232 131 221 190 170 136 107 77 76 58 52 46 34 16 13 9 21 25 23 31 35 42 41 27 26 24 23 24 24 24
156 170 147 179 148 158 148 81 49 55 101 270 205 161 244 192 202 155 157 146 131 107 84 66 56 52 35 19 15 19 25 28 26 34 37 40 43 35 33 23 24 16 17 15
61 189 291 144 91 25 93 70 75 326 335 225 200 181 252 173 178 166 162 153 119 99 83 72 59 51 36 22 17 30 28 32 28 37 40 38 44 45 41 30 24 19 14 15
150 215 187 176 177 166 163 156 159 199 199 222 193 232 243 102 87 108 123 130 113 96 94 80 66 54 40 28 25 28 35 38 33 38 39 38 39 44 42 34 32 29 20 17
152 223 351 174 204 154 185 188 148 60 116 54 219 281 206 127 122 133 139 139 135 125 104 88 72 61 50 39 34 32 43 46 40 39 44 41 40 44 39 35 37 31 24 20
205 168 181 201 144 28 160 145 104 115 187 232 256 271 236 202 186 171 165 157 144 132 124 112 91 68 52 47 41 47 49 54 48 46 42 43 38 38 37 37 33 28 24 24
139 107 204 137 216 166 144 169 174 159 173 189 261 255 39 222 185 172 170 160 156 147 139 127 108 79 62 55 47 50 51 53 49 44 44 45 39 36 40 40 33 27 28 25
189 122 171 198 258 237 178 180 177 165 223 232 165 270 342 268 167 163 158 154 146 139 134 128 106 101 87 70 59 56 51 52 44 44 49 47 43 38 39 33 30 24 31 29
180 259 84 7 332 338 211 201 180 123 96 197 174 256 21 97 132 152 147 149 143 135 134 122 112 114 101 89 77 66 59 58 50 50 52 46 41 40 39 32 28 28 29 31
123 150 173 194 219 143 200 194 190 198 215 202 220 223 207 182 161 155 151 148 147 150 149 140 133 125 114 102 85 74 64 54 57 63 57 55 43 35 36 36 31 29 28 30
166 182 132 137 332 300 226 199 192 203 216 201 226 201 205 191 180 170 158 151 152 159 159 156 149 148 140 121 108 90 76 68 64 66 63 53 49 40 41 39 33 30 29 32
196 179 113 198 201 357 265 234 215 214 198 238 145 243 340 150 141 161 168 164 168 170 167 164 160 159 155 146 136 116 96 81 79 74 65 58 49 44 38 38 29 31 27 29
153 138 137 228 147 228 285 222 200 212 199 193 211 198 140 156 175 179 174 175 173 173 169 168 168 165 156 151 140 126 112 99 82 77 65 55 44 46 36 34 33 29 20 23
156 139 115 131 131 220 266 2 208 210 214 206 107 165 173 183 180 164 174 169 171 169 169 167 164 153 148 134 127 123 110 95 90 80 71 56 47 49 41 42 37 28 18 29
188 150 141 167 210 300 239 202 167 173 243 203 174 137 118 113 89 42 178 176 170 169 166 163 155 148 142 142 138 125 112 106 101 91 81 61 53 56 46 44 30 27 24 32
191 200 183 150 199 215 245 188 167 112 269 185 157 158 148 145 168 213 175 171 160 154 154 151 148 144 147 150 142 133 129 122 115 112 102 84 73 67 58 39 31 21 19 32
146 175 190 178 207 273 211 168 139 148 242 173 172 163 164 178 189 135 149 151 150 150 150 145 149 157 157 151 144 137 140 138 140 127 113 90 65 67 53 40 27 19 25 23
160 147 173 120 171 264 156 93 170 211 21 144 139 160 166 106 118 145 149 147 149 149 151 152 152 156 153 152 148 149 155 147 135 124 111 88 63 57 54 34 25 18 25 17
189 191 167 180 210 218 215 350 14 138 149 163 142 159 141 134 145 151 148 149 152 153 154 156 155 149 152 159 158 157 156 146 138 127 117 101 75 72 38 78 57 52 10 336
252 213 134 107 231 228 241 277 242 209 180 140 138 144 146 143 151 147 147 151 154 157 158 154 150 156 163 165 167 150 151 142 134 140 148 135 126 154 187 95 54 15 275 320
167 142 152 283 250 307 243 221 185 177 141 119 125 145 147 145 157 154 155 156 157 157 157 159 162 166 170 162 154 152 146 137 148 151 155 158 173 199 160 1 212 256 257 260
187 172 167 216 187 168 219 185 175 164 170 159 152 138 153 157 156 158 158 159 157 160 157 162 166 163 167 160 159 155 146 154 158 163 174 188 188 164 139 265 294 281 265 304